Location: Newark
(47.5833°N, 8.1500°E)
Time: 18:26:32
(UTC+00:00)

Transit 2A - Pass Details

Date: 30 October 2020
Orbit: 595 x 964 km, 66.7° (Epoch: 01 December)

Event Time Altitude Azimuth Distance (km) Brightness Sun altitude
Rises 09:10:39 0° 322° (NW) 3,448 8.8 22.8°
Reaches altitude 10° 09:13:19 10° 317° (NW) 2,450 8.1 23.1°
Maximum altitude 09:18:40 47° 245° (WSW) 1,016 6.9 23.5°
Drops below altitude 10° 09:23:28 10° 172° (S) 2,195 9.8 23.9°
Sets 09:25:45 0° 166° (SSE) 3,055 10.4 24.1°
